Wind_Speed
4 6 9 10 11 12 14 16 17 18 17 17 18 18 18 17 15 17 19 19 19 17 15 14 14 13 13 13 12 12 11 11 11 10 10 10 9 7 7 8 7 6 8
1 3 6 8 9 11 13 13 13 14 15 16 18 19 19 18 16 17 19 21 19 17 15 14 13 13 13 13 13 10 9 10 10 10 10 10 10 9 8 6 5 4 4
3 4 5 7 8 9 11 11 9 10 12 14 16 18 18 17 16 16 18 21 20 18 17 14 13 14 14 13 13 12 9 8 8 9 9 10 10 9 8 8 6 2 1
7 7 7 7 7 7 8 9 7 7 9 12 14 16 16 16 14 15 18 19 19 18 19 18 16 15 15 15 14 14 13 10 8 7 8 9 8 7 7 7 7 6 3
8 9 9 9 8 7 7 8 7 7 8 10 12 12 14 14 14 14 16 18 18 17 19 20 19 17 16 15 15 14 14 13 11 9 7 7 6 5 6 5 5 5 5
8 8 9 10 9 9 8 9 10 11 12 12 11 11 12 13 14 14 15 17 16 16 17 18 18 19 18 16 15 15 14 14 12 11 10 8 7 4 6 6 5 3 3
7 8 8 9 10 11 11 12 13 14 14 13 12 12 13 13 14 15 16 17 16 16 17 18 18 18 17 16 16 16 16 15 14 13 12 10 9 7 6 7 6 4 2
8 8 8 9 10 11 11 11 12 13 14 14 14 14 13 13 12 13 14 15 16 15 16 17 18 17 15 14 14 14 14 15 15 14 13 12 11 8 8 8 8 7 6
8 9 9 10 10 9 8 8 8 9 9 10 11 10 10 11 12 12 13 14 16 15 15 16 17 17 17 15 13 12 12 13 14 15 16 15 14 10 10 10 9 9 9
9 10 10 10 10 8 7 7 6 6 7 8 9 10 11 11 11 12 12 13 15 15 15 15 14 15 16 17 16 15 14 14 13 13 16 17 15 12 10 12 12 11 10
9 11 10 11 11 12 11 11 12 12 13 13 13 15 14 13 14 14 13 14 14 14 14 15 14 14 15 16 17 18 18 18 17 15 16 17 17 14 10 12 14 14 14
12 13 15 15 15 16 17 19 19 20 20 20 20 20 20 18 18 20 19 19 19 18 18 18 17 16 17 18 19 19 19 19 20 20 18 16 17 15 13 13 15 15 16
19 20 21 22 22 22 22 23 24 24 23 23 25 25 26 25 24 25 25 25 25 24 23 20 19 18 19 21 21 22 22 22 21 22 23 22 20 20 19 17 17 16 15
22 24 25 25 26 27 26 27 28 29 28 29 29 29 29 28 27 27 28 29 30 31 30 28 24 21 22 23 22 22 22 22 23 24 24 24 22 23 23 23 20 20 18
26 26 27 30 32 33 32 32 32 33 35 37 36 35 35 35 33 31 31 32 33 34 33 33 31 27 27 27 28 28 26 23 22 24 25 24 25 26 26 26 26 23 22
29 30 30 33 35 37 37 37 37 38 39 39 39 39 39 39 37 36 35 34 34 34 34 33 34 34 34 32 32 34 33 30 27 27 27 27 27 29 30 29 30 28 25
32 33 36 38 38 39 41 42 42 42 41 41 41 41 40 38 37 37 37 38 37 36 36 35 36 36 37 37 36 36 38 37 40 38 33 32 31 32 33 33 32 31 28
32 34 36 38 41 42 43 43 44 43 42 44 43 40 38 37 36 35 37 38 37 38 37 38 39 38 40 41 41 42 42 42 43 44 38 33 32 34 35 35 36 35 32
31 33 36 37 38 37 38 39 40 41 41 41 40 39 40 38 37 37 38 38 39 40 42 43 42 41 40 43 45 44 43 44 45 44 40 38 37 34 36 38 39 39 36
35 34 35 35 36 37 37 39 40 41 41 39 39 40 41 42 41 40 41 43 43 42 43 44 43 42 43 45 47 47 46 44 43 40 36 34 33 33 36 39 41 40 39
38 38 37 35 34 36 37 39 40 41 42 42 41 41 42 43 42 41 40 40 41 41 41 42 43 43 44 45 46 48 46 42 38 37 37 32 33 35 37 38 40 40 41
36 36 36 36 34 35 36 37 37 37 38 39 39 40 39 39 40 40 41 41 42 41 40 41 42 42 42 42 43 44 43 40 37 39 41 37 35 36 37 36 38 38 39
32 33 33 33 33 35 37 37 36 35 34 34 35 35 35 35 35 36 38 40 41 41 41 42 42 43 43 42 43 45 43 39 39 39 40 37 37 37 35 33 38 39 35
35 38 38 38 36 35 36 37 37 37 37 37 36 36 37 37 37 36 37 39 40 42 44 44 44 45 45 44 45 45 45 42 40 37 35 38 38 30 28 28 34 36 33
36 38 40 44 44 42 40 39 39 40 40 40 40 39 38 38 39 39 40 41 43 45 45 45 46 47 47 46 46 44 42 41 37 34 35 37 33 28 25 27 33 34 33
31 31 32 36 39 41 43 43 42 42 42 42 41 40 40 40 40 40 40 41 43 44 44 45 47 48 47 46 47 47 44 38 34 33 32 32 25 26 27 33 32 34 34
Wind_Direction
67 60 53 46 47 43 39 37 36 36 35 34 33 31 29 26 24 21 17 14 9 7 11 11 13 17 15 12 18 29 35 37 38 34 40 47 51 49 59 77 91 96 87
41 42 37 28 32 35 35 36 43 42 34 32 29 24 21 22 23 23 19 14 13 11 14 17 17 22 20 12 9 12 24 31 28 26 23 26 37 43 50 65 92 110 94
351 9 19 14 19 28 33 37 45 36 27 27 25 21 16 17 18 19 16 14 12 15 17 18 18 23 21 14 10 7 4 20 20 19 14 11 15 21 30 41 49 73 103
357 355 358 1 6 15 19 24 30 19 17 19 18 15 12 12 11 8 7 8 10 13 17 16 13 17 19 15 12 15 7 3 4 5 359 354 1 359 358 12 21 24 5
7 3 359 359 359 3 11 14 7 356 356 359 2 2 0 3 1 357 358 3 6 7 8 11 10 7 7 8 9 16 19 8 1 351 338 330 336 338 333 342 359 5 12
12 8 2 353 348 347 352 354 348 346 342 341 343 344 345 350 351 351 351 354 357 355 355 356 0 1 359 358 359 2 11 14 6 350 336 318 312 305 305 321 332 348 8
350 347 343 334 331 331 334 336 339 342 340 339 337 336 338 345 347 346 347 345 340 336 338 341 341 346 351 352 348 350 357 5 8 0 341 319 298 297 282 276 293 296 300
338 332 330 325 323 329 341 347 348 348 347 344 340 338 341 348 350 349 350 345 338 332 326 325 325 328 331 334 338 344 348 352 354 360 351 326 301 279 265 264 270 272 275
315 318 320 322 322 326 334 336 344 350 353 355 352 351 352 348 342 335 333 331 329 328 327 323 318 314 317 317 318 326 334 339 342 344 344 346 336 310 275 267 271 277 276
304 307 311 308 303 305 307 303 313 318 324 328 326 324 324 331 328 324 323 317 316 319 325 325 323 317 316 313 309 307 310 316 323 330 333 340 345 335 300 278 271 270 274
316 312 310 304 297 295 296 299 302 302 303 302 301 303 304 306 305 304 306 305 302 304 314 319 320 311 308 310 309 306 306 305 304 308 316 326 329 332 325 301 286 277 271
309 301 300 299 297 298 300 303 304 304 305 300 295 293 296 297 295 294 292 293 294 293 296 303 308 305 299 298 298 301 302 303 300 296 298 298 301 305 306 303 299 290 278
299 293 290 293 295 296 298 299 298 299 300 299 297 295 295 297 297 293 291 289 289 289 290 293 296 297 296 297 297 297 297 296 294 297 299 292 289 292 292 293 293 292 293
291 292 294 290 287 287 289 288 287 289 291 293 292 291 292 290 288 284 282 283 286 292 294 293 290 285 288 290 292 293 294 297 295 292 291 288 281 276 276 283 285 288 292
284 286 288 287 285 284 285 284 284 285 287 289 287 287 288 288 288 285 280 281 283 285 287 288 289 285 283 283 286 288 287 292 294 294 288 283 274 267 267 271 273 278 286
283 284 283 280 279 281 282 281 282 282 283 284 285 285 286 286 285 283 280 278 276 278 281 284 285 283 279 279 281 282 283 282 287 283 273 269 270 268 261 258 262 269 276
284 282 281 280 279 278 279 279 278 277 279 281 283 283 282 281 278 278 278 277 278 277 275 275 276 277 276 276 279 284 287 286 290 286 273 261 262 268 265 258 255 260 266
292 286 282 280 280 280 281 282 282 281 282 283 284 281 278 277 274 274 276 272 274 277 277 276 276 274 275 277 281 286 286 284 285 285 278 271 267 269 269 264 256 255 260
292 287 285 283 283 283 282 281 282 283 284 284 284 282 281 278 275 274 272 271 271 272 274 275 276 277 277 280 282 283 284 284 285 285 284 277 272 266 263 260 251 249 254
301 293 286 283 282 283 283 283 283 283 282 281 281 281 281 280 278 275 270 271 272 273 277 278 278 277 277 279 282 284 285 284 284 282 277 272 264 262 264 259 248 244 247
304 300 293 287 282 279 278 278 279 279 279 280 278 278 277 277 278 277 275 271 271 275 279 278 278 280 281 282 284 284 282 282 284 279 278 278 274 272 268 260 248 244 244
298 296 295 294 292 288 285 283 283 282 280 279 279 280 280 280 279 276 274 273 274 277 278 279 280 282 284 285 285 284 285 282 282 281 281 282 277 274 272 261 248 245 245
296 295 292 291 293 295 294 291 288 286 284 284 284 285 285 284 282 279 276 276 278 279 279 279 280 282 284 283 286 286 284 284 283 278 278 277 274 273 269 264 253 247 243
296 300 297 295 295 296 295 293 291 288 286 285 286 285 286 287 286 284 281 281 284 286 287 285 284 283 283 283 283 283 282 283 281 272 270 277 271 262 256 259 257 244 241
295 298 298 298 299 298 295 293 292 291 289 288 288 287 286 287 288 287 287 287 287 287 287 287 288 288 286 282 282 282 279 278 274 265 269 276 262 249 252 252 245 238 240
307 308 303 298 295 293 291 288 286 286 287 288 287 286 285 284 286 286 286 287 287 285 284 282 284 285 285 284 283 282 283 276 268 266 265 269 262 243 240 245 241 238 239
Height
5931 5929 5928 5928 5927 5927 5927 5928 5928 5927 5926 5926 5925 5923 5922 5922 5921 5920 5918 5916 5914 5912 5910 5909 5907 5906 5904 5903 5902 5900 5899 5898 5898 5898 5896 5894 5894 5893 5892 5891 5891 5891 5891
5932 5931 5931 5930 5930 5929 5929 5929 5929 5929 5928 5928 5926 5925 5923 5923 5922 5921 5919 5917 5915 5913 5911 5910 5908 5907 5905 5904 5903 5901 5900 5899 5899 5898 5897 5895 5893 5892 5892 5892 5892 5892 5892
5933 5933 5932 5932 5931 5931 5930 5930 5930 5930 5929 5929 5927 5926 5925 5924 5923 5921 5920 5918 5916 5914 5912 5911 5910 5908 5906 5905 5903 5902 5901 5900 5899 5898 5896 5895 5894 5892 5891 5891 5891 5891 5892
5934 5933 5933 5933 5932 5931 5931 5931 5930 5929 5929 5928 5927 5926 5925 5925 5924 5922 5921 5919 5918 5916 5913 5911 5910 5909 5907 5905 5904 5903 5902 5901 5898 5897 5896 5895 5894 5893 5892 5891 5890 5890 5891
5934 5933 5933 5933 5932 5932 5931 5930 5930 5929 5928 5928 5927 5926 5925 5924 5924 5923 5921 5920 5918 5917 5914 5912 5910 5909 5907 5905 5904 5903 5902 5901 5899 5897 5896 5895 5894 5894 5893 5892 5891 5891 5890
5934 5933 5933 5932 5932 5931 5930 5930 5929 5929 5928 5927 5927 5926 5925 5924 5924 5923 5921 5920 5918 5917 5915 5913 5911 5909 5907 5905 5904 5902 5901 5900 5900 5898 5896 5894 5893 5893 5893 5893 5892 5892 5892
5933 5933 5932 5932 5931 5931 5930 5929 5929 5928 5927 5926 5926 5926 5925 5924 5923 5922 5921 5919 5917 5916 5914 5912 5910 5908 5906 5904 5903 5902 5900 5900 5899 5898 5897 5894 5893 5892 5892 5892 5892 5891 5891
5932 5932 5931 5931 5930 5930 5929 5928 5928 5926 5925 5925 5925 5925 5924 5923 5922 5921 5919 5917 5915 5914 5912 5910 5908 5905 5904 5903 5901 5900 5900 5899 5898 5897 5896 5894 5892 5891 5891 5890 5890 5890 5890
5932 5931 5931 5930 5929 5928 5928 5927 5925 5924 5923 5922 5922 5922 5921 5921 5920 5919 5917 5915 5913 5911 5910 5908 5905 5903 5902 5900 5899 5899 5898 5897 5897 5896 5895 5894 5892 5891 5890 5889 5888 5888 5887
5931 5931 5930 5929 5928 5927 5926 5925 5924 5922 5921 5920 5919 5918 5918 5917 5917 5916 5914 5912 5910 5908 5906 5905 5903 5901 5898 5897 5897 5896 5896 5895 5895 5894 5893 5893 5892 5890 5889 5888 5887 5886 5885
5932 5930 5930 5929 5928 5927 5925 5924 5923 5921 5919 5918 5917 5916 5915 5914 5913 5911 5910 5909 5907 5904 5902 5901 5900 5898 5896 5894 5894 5893 5893 5892 5892 5891 5891 5891 5891 5889 5887 5887 5886 5884 5884
5929 5929 5929 5928 5927 5926 5924 5922 5920 5919 5917 5915 5914 5913 5912 5911 5909 5907 5906 5904 5902 5900 5898 5896 5895 5894 5893 5892 5891 5890 5889 5888 5888 5887 5887 5888 5889 5888 5886 5885 5884 5883 5883
5927 5925 5925 5925 5924 5923 5921 5918 5916 5915 5913 5912 5910 5908 5907 5906 5905 5902 5900 5899 5896 5895 5893 5892 5890 5889 5888 5887 5887 5886 5885 5884 5882 5882 5882 5883 5883 5883 5882 5882 5882 5882 5881
5925 5923 5920 5919 5919 5917 5916 5913 5911 5909 5907 5906 5904 5902 5901 5899 5898 5897 5894 5891 5889 5887 5886 5886 5885 5885 5883 5882 5881 5880 5879 5878 5877 5877 5877 5878 5879 5879 5878 5878 5879 5879 5878
5920 5918 5917 5915 5911 5909 5908 5906 5904 5902 5900 5898 5897 5895 5893 5892 5891 5889 5887 5885 5882 5881 5880 5878 5878 5878 5877 5875 5873 5873 5871 5870 5872 5872 5870 5871 5872 5872 5872 5874 5874 5874 5873
5910 5909 5908 5908 5906 5902 5899 5898 5897 5894 5891 5889 5888 5887 5885 5883 5881 5880 5878 5877 5876 5875 5873 5871 5870 5869 5868 5867 5867 5866 5865 5865 5865 5866 5865 5864 5865 5864 5864 5866 5868 5868 5868
5899 5898 5898 5897 5896 5894 5891 5889 5887 5884 5882 5881 5880 5878 5876 5875 5873 5872 5870 5868 5867 5865 5864 5862 5861 5860 5859 5859 5859 5858 5857 5857 5858 5856 5857 5857 5856 5856 5856 5859 5861 5861 5861
5888 5888 5888 5886 5884 5882 5880 5879 5875 5871 5870 5870 5869 5868 5867 5866 5864 5863 5862 5859 5857 5855 5854 5853 5851 5851 5850 5849 5849 5849 5848 5847 5848 5846 5846 5848 5848 5847 5847 5849 5852 5852 5854
5882 5880 5877 5875 5873 5871 5870 5868 5865 5863 5860 5859 5858 5856 5854 5854 5854 5853 5852 5848 5846 5845 5844 5843 5841 5841 5841 5840 5839 5839 5837 5836 5835 5837 5838 5838 5838 5838 5838 5839 5841 5843 5844
5872 5872 5870 5867 5866 5863 5861 5860 5856 5854 5852 5850 5849 5847 5844 5842 5841 5841 5841 5839 5837 5835 5833 5832 5831 5831 5830 5829 5828 5828 5827 5827 5826 5827 5826 5826 5827 5827 5827 5828 5830 5833 5835
5863 5860 5860 5860 5858 5855 5853 5851 5849 5846 5842 5840 5839 5837 5835 5832 5831 5829 5829 5828 5828 5826 5825 5823 5821 5821 5820 5818 5817 5816 5816 5816 5816 5817 5816 5816 5817 5817 5816 5817 5818 5822 5825
5857 5853 5850 5849 5848 5846 5844 5842 5839 5836 5833 5831 5828 5827 5825 5824 5821 5820 5818 5817 5817 5816 5815 5814 5812 5811 5810 5809 5806 5804 5805 5808 5807 5806 5805 5805 5806 5806 5805 5806 5808 5812 5815
5850 5847 5844 5842 5839 5835 5832 5830 5829 5827 5825 5822 5820 5818 5816 5814 5812 5810 5809 5807 5807 5806 5806 5805 5804 5802 5801 5800 5797 5795 5794 5796 5796 5797 5796 5795 5795 5796 5796 5798 5800 5803 5806
5843 5840 5837 5834 5832 5829 5825 5821 5819 5818 5815 5813 5812 5809 5806 5803 5801 5799 5799 5798 5796 5795 5794 5793 5791 5790 5790 5789 5788 5786 5785 5785 5785 5786 5787 5787 5786 5788 5788 5788 5790 5795 5797
5837 5834 5829 5825 5822 5819 5816 5812 5809 5807 5805 5803 5801 5799 5798 5795 5792 5790 5789 5787 5785 5784 5782 5781 5779 5778 5778 5777 5777 5777 5775 5774 5775 5776 5778 5778 5778 5779 5780 5781 5782 5786 5789
5830 5826 5822 5817 5813 5810 5806 5803 5800 5798 5795 5793 5792 5790 5789 5787 5784 5781 5779 5777 5774 5772 5771 5769 5767 5766 5765 5765 5765 5765 5765 5764 5765 5766 5768 5769 5769 5771 5773 5773 5775 5778 5783